Content
SEND FEEDBACK

Daily
Averages
Monthly
Summary
United States of America

EUREKA, CALIFORNIA


Home > North America > United States > California
Elevation: 59 feet     Latitude: 40 48N     Longitude: 124 07W

WEATHER
 
SELECT A DAY
Number of Records: 239,590;   Date Range: 1/1/95 - 7/26/14
 
SHARE

PRINT THIS DATA

[ ← Previous Day ]
WEATHER ALMANAC - APRIL 28, 2013
[ Next Day → ]
[ °C ]   °F
Weather ElementAverageHighLow
Temperature49.9 °F57.9 °F (2:53 pm)45 °F (4:53 am)
Dewpoint45.3 °F48.9 °F (2:53 pm)43 °F (3:53 am)
Humidity84.8 %97 % (11:53 pm)72 % (2:53 pm)
Barometer30.21 in30.28 in (1:53 am)30.16 in (6:53 pm)
Wind Speed8.2 mph19.6 mph (4:53 pm)
Wind Gust26.5 mph (4:53 pm)
Weather ElementAverage
Visibility10 mi
Wind DirectionSSW (191.2 °)

Weather ElementTotal
Precipitation---
Heating Degree Days13.6 (Base 65)
Growing Degree Days1.5 (Base 50)
Averaged from 26 records on April 28, 2013
WEATHER CONDITIONS BREAKOUT
WIND DIRECTION BREAKOUT
WEATHER BY HOUR - APRIL 28, 2013
[ °C ]   °F
Local TimeTemperatureDewpointHumidityBarometerVisibilityWind DirectionWind SpeedGust SpeedPrecipitationEventsConditions
1:53 AM46.0 °F44.1 °F93 %30.28 in10.0 miCalmOvercast
2:53 AM46.0 °F44.1 °F93 %30.26 in10.0 miCalmOvercast
3:53 AM46.0 °F43.0 °F89 %30.26 in10.0 miCalmOvercast
4:53 AM45.0 °F43.0 °F93 %30.25 in10.0 miESE (120°)4.6 mphOvercast
5:53 AM45.0 °F43.0 °F93 %30.24 in10.0 miCalmOvercast
6:53 AM45.0 °F43.0 °F93 %30.23 in10.0 miESE (120°)4.6 mphOvercast
7:53 AM46.0 °F43.0 °F89 %30.24 in10.0 miCalmOvercast
8:53 AM46.9 °F44.1 °F90 %30.24 in10.0 miVariable3.5 mphOvercast
9:21 AM48.2 °F44.6 °F87 %30.22 in10.0 miNW (310°)5.8 mphScattered Clouds
9:42 AM48.2 °F44.6 °F87 %30.22 in10.0 miNW (320°)9.2 mphMostly Cloudy
9:53 AM48.0 °F44.1 °F86 %30.25 in10.0 miNW (310°)10.4 mphOvercast
10:37 AM50.0 °F44.6 °F82 %30.22 in10.0 miNW (320°)5.8 mphPartly Cloudy
10:53 AM50.0 °F45.0 °F83 %30.25 in10.0 miNW (320°)10.4 mphClear
11:53 AM52.0 °F46.0 °F80 %30.25 in10.0 miNW (320°)12.7 mphClear
12:53 PM55.0 °F46.9 °F74 %30.23 in10.0 miNNW (340°)17.3 mphClear
1:53 PM55.9 °F48.0 °F75 %30.20 in10.0 miNNW (330°)17.3 mphClear
2:53 PM57.9 °F48.9 °F72 %30.19 in10.0 miNNW (330°)16.1 mph20.7 mphClear
3:53 PM57.0 °F48.0 °F72 %30.18 in10.0 miNNW (330°)18.4 mphClear
4:53 PM55.9 °F48.0 °F75 %30.17 in10.0 miNNW (330°)19.6 mph26.5 mphClear
5:53 PM57.0 °F48.0 °F72 %30.17 in10.0 miNNW (330°)18.4 mphClear
6:53 PM52.0 °F46.9 °F83 %30.16 in10.0 miNNW (340°)18.4 mphClear
7:53 PM51.1 °F46.9 °F86 %30.17 in10.0 miNorthClear
8:53 PM51.1 °F46.0 °F83 %30.17 in10.0 miNorth (360°)8.1 mphClear
9:53 PM48.0 °F45.0 °F89 %30.18 in10.0 miCalmClear
10:53 PM48.0 °F45.0 °F89 %30.18 in10.0 miCalmClear
11:53 PM45.0 °F44.1 °F97 %30.17 in10.0 miSE (140°)3.5 mphClear
Hourly data recorded from KACV, located miles away from Eureka, California







STORIES FROM OUR PARTNERS